カタログに戻る

FENGYUN 1C DEB

LostSSO
NORAD 37710·DEBRIS·🇨🇳 China

打ち上げ May 10, 1999 から Taiyuan Satellite Launch Center

Loading…

次のパス (今後24時間)

TLE

古いSource: Space-Track

元期: Sep 11, 2024, 05:10 UTC

1 37710U 99025EMB 24255.21537237  .00003363  00000-0  36308-2 0  9998
2 37710  99.1405 248.3570 0263105 257.9323 162.3116 13.60001574502740

AllMySatでFENGYUN 1C DEBをリアルタイム追跡

Download on the App Store